Regional Weather Roundup
Issued by NWS

Home | Current Version | Previous Version | Text Only | Print | Product List | Glossary Off
Versions: 1 2 3 4 5 6 7 8 9 10 11 12 13 14 15 16 17 18 19 20 21 22 23 24 25 26 27 28 29 30 31 32 33 34 35 36 37 38 39 40 41 42 43 44 45 46 47 48 49 50

000
ASUS43 KMPX 142210
RWRMN
WEATHER ROUNDUP FOR MINNESOTA
NATIONAL WEATHER SERVICE TWIN CITIES/CHANHASSEN MN
400 PM CST THU DEC 14 2017


NOTE: "FAIR" INDICATES FEW OR NO CLOUDS BELOW 12,000 FEET WITH NO
SIGNIFICANT WEATHER AND/OR OBSTRUCTIONS TO VISIBILITY. N/A MEANS
CURRENT SKY AND/OR WEATHER CONDITIONS ARE NOT AVAILABLE.

MNZ060>063-068>070-142300-
   Twin Cities Metro

CITY           SKY/WX    TMP DP  RH WIND       PRES   REMARKS
TWIN CITIES    CLOUDY    23  18  81 W10       30.01F WCI  12
ST PAUL        CLOUDY    22  17  81 W7        30.03S WCI  13
CRYSTAL        CLOUDY    22  14  71 W9        30.01R WCI  12
BLAINE         CLOUDY    23  19  86 W10G16    30.00S WCI  12
LAKEVILLE      CLOUDY    21  18  86 W8        30.01F WCI  12
EDEN PRAIRIE   CLOUDY    22  16  78 W9        30.01S WCI  12
SOUTH ST PAUL  CLOUDY    23  17  78 W6        30.01F WCI  16
LAKE ELMO      FLURRIES  23  19  86 W6        30.01S WCI  16
$$
MNZ001>005-007-008-013>017-022>024-027-028-142300-
   Northwest Minnesota

CITY           SKY/WX    TMP DP  RH WIND       PRES   REMARKS
BEMIDJI        FLURRIES  13   9  82 NW10      29.97S WCI   0
HALLOCK        LGT SNOW  19  16  86 NW8       30.05S WCI   9
ROSEAU         LGT SNOW  14   9  79 NW7       30.01R WCI   4
WARROAD        LGT SNOW  12   9  85 W10       29.99R WCI  -1
THIEF RVR FALL FLURRIES  14  10  84 NW15      30.04R WCI  -1
CROOKSTON      CLOUDY    18  14  86 N10       30.07S WCI   6
FOSSTON        FLURRIES  12   9  85 W16       30.02R WCI  -4
DETROIT LAKES  FLURRIES  19  18  93 NW16      30.02S WCI   5
MOORHEAD       MOCLDY    21  18  86 CALM      30.07S
PARK RAPIDS    CLOUDY    17  12  80 NW15      29.97R WCI   2
MAHNOMEN       FLURRIES  17  14  86 NW16      30.02S WCI   2
$$
MNZ006-009>011-018-025>026-142300-
   North Central Minnesota

CITY           SKY/WX    TMP DP  RH WIND       PRES   REMARKS
BAUDETTE       LGT SNOW  12   7  80 NW14      29.96S WCI  -3
FLAG ISLAND    FLURRIES  12   7  79 NW14      29.97R WCI  -3
INTL FALLS     CLOUDY    12   5  73 W9        29.93S HAZE    WCI   0
WASKISH        FLURRIES  12  10  92 W6        29.97S WCI   3
BIG FORK       FLURRIES  14   7  73 W6        29.95R WCI   5
LONGVILLE      FLURRIES  18  12  79 NW5       29.97R WCI  11
GRAND RAPIDS   FLURRIES  16   9  74 NW14      29.96R WCI   2
CRANE LAKE     FLURRIES  14   9  79 W3        29.95S
ORR            FLURRIES  12   7  79 NW9       29.91R WCI   0
COOK           FLURRIES  14   9  79 W9        29.93R WCI   2
WALKER         FLURRIES  16  11  81 W13G18    29.97R WCI   2
$$
MNZ012-019>021-037-142300-
   Northeast Minnesota

CITY           SKY/WX    TMP DP  RH WIND       PRES   REMARKS
DULUTH         FLURRIES  16  10  77 W7        29.91R WCI   6
ELY            FLURRIES  12   9  85 W8        29.90S WCI   1
HIBBING        FLURRIES  15   7  70 NW10      29.92S WCI   2
EVELETH        FLURRIES  15   8  73 W7        29.93S WCI   5
DULUTH HARBOR  FLURRIES  21  14  73 W9        29.98R WCI  11
TWO HARBORS    LGT SNOW  19  12  73 W3        29.92R
SILVER BAY     FLURRIES  18  12  79 W3        29.91R
GRAND MARAIS     N/A     21  12  68 CALM      29.93S
G MARAIS ARPRT LGT SNOW  12   7  79 CALM      29.84S
$$
MNZ029>031-032-039>041-046>048-054>057-064-142300-
   West Central Minnesota

CITY           SKY/WX    TMP DP  RH WIND       PRES   REMARKS
FERGUS FALLS   CLOUDY    21  18  86 NW12      30.09R WCI   9
WHEATON        CLOUDY    27  21  80 NW12      30.09S WCI  16
MORRIS         CLOUDY    25  19  80 NW14      30.05R WCI  13
ALEXANDRIA     CLOUDY    22  16  78 NW17G24   30.02R WCI   8
ELBOW LAKE     CLOUDY    22  20  93 W10       30.05R FOG     WCI  11
WADENA         FLURRIES  18  12  79 NW14G23   30.00R WCI   4
GLENWOOD       PTCLDY    21  18  86 NW13      30.03R WCI   9
APPLETON       CLOUDY    27  19  74 NW10      30.07R WCI  17
BENSON         CLOUDY    25  18  74 N14G22    30.07R WCI  13
ORTONVILLE     CLOUDY    25  21  86 NW12      30.07R WCI  14
MADISON        CLOUDY    28  25  86 NW6       30.07S WCI  22
WILLMAR        CLOUDY    27  19  74 NW16      30.05R WCI  14
$$
MNZ033>034-036-042>043-049>051-058-059-142300-
   Central Minnesota

CITY           SKY/WX    TMP DP  RH WIND       PRES   REMARKS
ST CLOUD       CLOUDY    21  15  78 NW7       30.01R WCI  12
SAUK CENTRE    CLOUDY    21  15  76 NW20G26   30.02R WCI   6
PAYNESVILLE    CLOUDY    24  19  83 NW10G18   30.03R WCI  13
AITKIN         FLURRIES  18  12  79 NW5       29.96R WCI  11
PINE RIVER     CLOUDY    18  10  73 NW9       30.01R WCI   6
BRAINERD       CLOUDY    20  12  71 NW9       29.98S WCI   9
STAPLES        FLURRIES  19  12  73 NW9       29.99S WCI   9
LONG PRAIRIE   CLOUDY    21  14  73 W16       30.01R WCI   7
LITTLE FALLS   FLURRIES  23  10  58 NW8       30.01S WCI  14
LITCHFIELD     MIX PCPN  25  19  80 NW9       30.03R WCI  15
BUFFALO        CLOUDY    22  16  77 W8        30.04R WCI  13
MAPLE LAKE     CLOUDY    23  18  80 W9        30.03R WCI  13
HUTCHINSON     CLOUDY    25  18  76 W8        30.04R WCI  16
$$
MNZ037-044-045-052-053-142300-
   East Central Minnesota

CITY           SKY/WX    TMP DP  RH WIND       PRES   REMARKS
PRINCETON      FLURRIES  21  16  79 W9        30.01R WCI  11
MORA           FLURRIES  19  12  73 NW6       30.01R WCI  11
CAMBRIDGE      FLURRIES  23  14  68 W7        30.01R WCI  15
RUSH CITY      CLOUDY    20  14  78 W7        30.01R WCI  11
MOOSE LAKE     FLURRIES  19  12  73 W7        29.95S WCI  10
HINCKLEY       FLURRIES  21  14  73 W7        29.99R WCI  13
CLOQUET        LGT SNOW  18  10  73 W6        29.93S WCI   9
MCGREGOR       CLOUDY    19  14  79 W6        29.96S WCI  11
$$
MNZ071>073-080-081-089-090-097-098-142300-
   Southwest Minnesota

CITY           SKY/WX    TMP DP  RH WIND       PRES   REMARKS
MONTEVIDEO     CLOUDY    27  21  80 N9        30.07R WCI  17
GRANITE FALLS  CLOUDY    28  24  87 W12       30.08R WCI  17
CANBY          CLOUDY    27  26  94 W8        30.09R FOG     WCI  19
MARSHALL       MIX PCPN  27  23  86 NW10      30.07  FOG     WCI  17
REDWOOD FALLS  CLOUDY    27  19  72 NW8       30.05R WCI  19
OLIVIA         CLOUDY    28  21  74 NW10      30.04R WCI  19
PIPESTONE      CLOUDY    30  27  86 NW8       30.02R WCI  23
WINDOM           N/A     28  14  54 NW9       30.03S WCI  20
WORTHINGTON    CLOUDY    29  24  82 N6        30.04R WCI  23
JACKSON        CLOUDY    28  19  69 MISG      30.03S
SLAYTON        CLOUDY    28  23  82 N7        30.04R WCI  21
$$
MNZ065>067-074>077-082>085-091>093-142300-
   South Central Minnesota

CITY           SKY/WX    TMP DP  RH WIND       PRES   REMARKS
MANKATO        CLOUDY    24  19  81 NW9       30.03S WCI  14
NEW ULM        CLOUDY    25  18  74 NW10      30.04R WCI  15
ST JAMES       CLOUDY    27  19  74 NW9       30.05R WCI  17
FAIRMONT       CLOUDY    27  21  78 NW12      30.04R WCI  17
GLENCOE        CLOUDY    25  20  80 W9        30.03R WCI  15
FARIBAULT      CLOUDY    21  18  86 W9        30.02S WCI  11
OWATONNA       CLOUDY    21  19  93 W9        30.01S WCI  11
WASECA         CLOUDY    23  19  86 W9        30.04S WCI  13
ALBERT LEA     CLOUDY    23  18  80 W6        30.02R WCI  16
$$
MNZ078>079-086>088-094>096-142300-
   Southeast Minnesota

CITY           SKY/WX    TMP DP  RH WIND       PRES   REMARKS
ROCHESTER      CLOUDY    21  17  84 W14       30.00S WCI   8
RED WING       CLOUDY    23  16  74 W7        30.01S WCI  15
STANTON        CLOUDY    24  19  81 W9        30.00S WCI  14
DODGE CENTER   CLOUDY    21  18  86 W9        29.99F WCI  11
WINONA         CLOUDY    28  18  64 W6        30.03S WCI  22
AUSTIN         CLOUDY    21  18  86 NW8       30.01S WCI  12
PRESTON        CLOUDY    22  15  75 W8        30.01S WCI  13
$$
ABBREVIATIONS USED IN REMARKS
   TC - TEMPERATURES IN CELSIUS
  WCI - WIND CHILL INDEX
   HX - HEAT INDEX
  VSB - VISIBILITY
$$




USA.gov is the U.S. government's official web portal to all federal, state and local government web resources and services.